Weather History for Lancaster, SC

Change the Weather History Date:

Saturday, January 19, 2013

  Actual Average (KUZA) Record (KUZA)
Temperature  
Mean Temperature 39 °F -  
Max Temperature 55 °F 49 °F 69 °F (1972)
Min Temperature 23 °F 32 °F 10 °F (1977)
Degree Days  
Heating Degree Days 26    
Moisture  
Dew Point 28 °F    
Average Humidity 77    
Maximum Humidity 100    
Minimum Humidity 25    
Precipitation  
Precipitation 0.00 in - - ()
Sea Level Pressure  
Sea Level Pressure 30.36 in    
Wind  
Wind Speed 0 mph (SW)    
Max Wind Speed 6 mph    
Max Gust Speed -    
Visibility 10 miles    
Events      
Averages and records for this station are not official NWS values.
T = Trace of Precipitation, MM = Missing Value Source: NWS Daily Summary

Daily Weather History Graph

Daily Weather History Graph

Search for Another Location

Airport:

Trip Planner

Search our weather history database for the weather conditions in past years. The results will help you decide how hot, cold, wet, or windy it might be!

Date:

Astronomy

Jan. 19, 2013 Rise Set
Actual Time 7:28 AM EST 5:39 PM EST
Civil Twilight 7:01 AM EST 6:07 PM EST
Nautical Twilight 6:30 AM EST 6:37 PM EST
Astronomical Twilight 6:00 AM EST 7:08 PM EST
Moon 12:02 PM EST (1/19) 1:05 AM EST (1/19)
Length of Visible Light 11h 05m
Length of Day
10h 10m
First Quarter, 57% of the Moon is Illuminated
Jan 19
First Quarter
Jan 26
Full
Feb 3
Last Quarter
Feb 10
New
Feb 17
First Quarter

Hourly Weather History & Observations

Time (EST) Temp. Dew Point Humidity Pressure Visibility Wind Dir Wind Speed Gust Speed Precip Events Conditions
12:15 AM 26.6 °F 26.6 °F 100% 30.49 in 10.0 mi Calm Calm - N/A   Clear
12:35 AM 28.4 °F 28.4 °F 100% 30.49 in 10.0 mi Calm Calm - N/A   Clear
12:55 AM 26.6 °F 26.6 °F 100% 30.49 in 10.0 mi Calm Calm - N/A   Clear
1:15 AM 28.4 °F 28.4 °F 100% 30.49 in 10.0 mi Calm Calm - N/A   Clear
1:35 AM 28.4 °F 26.6 °F 93% 30.49 in 10.0 mi Calm Calm - N/A   Clear
2:15 AM 26.6 °F 26.6 °F 100% 30.49 in 10.0 mi Calm Calm - N/A   Clear
2:35 AM 26.6 °F 26.6 °F 100% 30.50 in 10.0 mi Calm Calm - N/A   Clear
2:55 AM 26.6 °F 26.6 °F 100% 30.50 in 10.0 mi Calm Calm - N/A   Clear
3:15 AM 24.8 °F 24.8 °F 100% 30.50 in 10.0 mi Calm Calm - N/A   Clear
3:35 AM 24.8 °F 24.8 °F 100% 30.49 in 10.0 mi Calm Calm - N/A   Clear
3:55 AM 24.8 °F 24.8 °F 100% 30.49 in 10.0 mi Calm Calm - N/A   Clear
4:15 AM 24.8 °F 24.8 °F 100% 30.48 in 10.0 mi Calm Calm - N/A   Clear
4:35 AM 24.8 °F 24.8 °F 100% 30.48 in 10.0 mi Calm Calm - N/A   Clear
4:55 AM 24.8 °F 24.8 °F 100% 30.48 in 10.0 mi Calm Calm - N/A   Clear
5:15 AM 24.8 °F 24.8 °F 100% 30.47 in 10.0 mi Calm Calm - N/A   Clear
5:35 AM 24.8 °F 24.8 °F 100% 30.47 in 10.0 mi Calm Calm - N/A   Clear
6:15 AM 24.8 °F 24.8 °F 100% 30.47 in 10.0 mi Calm Calm - N/A   Clear
6:35 AM 23.0 °F 23.0 °F 100% 30.47 in 10.0 mi Calm Calm - N/A   Clear
6:55 AM 23.0 °F 23.0 °F 100% 30.47 in 10.0 mi Calm Calm - N/A   Clear
8:15 AM 23.0 °F 23.0 °F 100% 30.47 in 10.0 mi Calm Calm - N/A   Clear
8:35 AM 24.8 °F 24.8 °F 100% 30.47 in 10.0 mi Calm Calm - N/A   Clear
9:15 AM 28.4 °F 28.4 °F 100% 30.48 in 10.0 mi Calm Calm - N/A   Clear
10:55 AM 44.6 °F 28.4 °F 53% 30.47 in 10.0 mi Calm Calm - N/A   Clear
11:15 AM 44.6 °F 26.6 °F 49% 30.46 in 10.0 mi Calm Calm - N/A   Clear
11:35 AM 46.4 °F 28.4 °F 50% 30.44 in 10.0 mi Calm Calm - N/A   Clear
12:15 PM 48.2 °F 23.0 °F 37% 30.40 in 10.0 mi SSW 3.5 mph - N/A   Clear
12:35 PM 50.0 °F 24.8 °F 37% 30.38 in 10.0 mi Calm Calm - N/A   Clear
1:15 PM 51.8 °F 23.0 °F 33% 30.35 in 10.0 mi SW 3.5 mph - N/A   Clear
1:35 PM 53.6 °F 24.8 °F 33% 30.33 in 10.0 mi WSW 3.5 mph - N/A   Clear
1:55 PM 53.6 °F 24.8 °F 33% 30.32 in 10.0 mi SW 4.6 mph - N/A   Clear
2:15 PM 55.4 °F 19.4 °F 25% 30.31 in 10.0 mi SW 5.8 mph - N/A   Clear
2:55 PM 55.4 °F 23.0 °F 29% 30.29 in 10.0 mi SW 4.6 mph - N/A   Clear
3:15 PM 55.4 °F 23.0 °F 29% 30.29 in 10.0 mi SSW 5.8 mph - N/A   Clear
3:35 PM 55.4 °F 23.0 °F 29% 30.28 in 10.0 mi Calm Calm - N/A   Clear
3:55 PM 55.4 °F 24.8 °F 31% 30.27 in 10.0 mi Calm Calm - N/A   Clear
4:15 PM 55.4 °F 24.8 °F 31% 30.26 in 10.0 mi SSW 3.5 mph - N/A   Clear
4:35 PM 55.4 °F 26.6 °F 33% 30.26 in 10.0 mi Calm Calm - N/A   Clear
4:55 PM 53.6 °F 26.6 °F 35% 30.26 in 10.0 mi Calm Calm - N/A   Clear
5:15 PM 50.0 °F 32.0 °F 50% 30.26 in 10.0 mi Calm Calm - N/A   Clear
5:35 PM 48.2 °F 32.0 °F 54% 30.25 in 10.0 mi Calm Calm - N/A   Clear
5:55 PM 46.4 °F 33.8 °F 62% 30.25 in 10.0 mi Calm Calm - N/A   Clear
6:15 PM 42.8 °F 35.6 °F 76% 30.25 in 10.0 mi Calm Calm - N/A   Clear
6:55 PM 41.0 °F 33.8 °F 76% 30.26 in 10.0 mi Calm Calm - N/A   Clear
7:15 PM 41.0 °F 35.6 °F 81% 30.26 in 10.0 mi Calm Calm - N/A   Clear
7:55 PM 39.2 °F 35.6 °F 87% 30.26 in 10.0 mi Calm Calm - N/A   Clear
8:15 PM 37.4 °F 35.6 °F 93% 30.26 in 10.0 mi Calm Calm - N/A   Clear
8:35 PM 37.4 °F 35.6 °F 93% 30.26 in 10.0 mi Calm Calm - N/A   Clear
8:55 PM 37.4 °F 35.6 °F 93% 30.25 in 10.0 mi Calm Calm - N/A   Clear
9:15 PM 35.6 °F 35.6 °F 100% 30.25 in 10.0 mi Calm Calm - N/A   Clear
9:35 PM 37.4 °F 35.6 °F 93% 30.25 in 10.0 mi Calm Calm - N/A   Clear
9:55 PM 37.4 °F 35.6 °F 93% 30.24 in 10.0 mi Calm Calm - N/A   Clear
10:15 PM 37.4 °F 35.6 °F 93% 30.23 in 10.0 mi Calm Calm - N/A   Clear
10:35 PM 39.2 °F 35.6 °F 87% 30.23 in 10.0 mi Calm Calm - N/A   Clear
10:55 PM 37.4 °F 35.6 °F 93% 30.22 in 10.0 mi Calm Calm - N/A   Clear
11:15 PM 37.4 °F 35.6 °F 93% 30.21 in 10.0 mi Calm Calm - N/A   Clear
11:35 PM 35.6 °F 35.6 °F 100% 30.21 in 10.0 mi Calm Calm - N/A   Clear
11:55 PM 37.4 °F 35.6 °F 93% 30.21 in 10.0 mi Calm Calm - N/A   Clear